Location: Marcé
(47.5801°N, 0.3280°W)
Time: 18:25:32
(UTC+01:00)

Tiros 1 - Pass Details

Date: 04 December 2021
Orbit: 629 x 664 km, 48.4° (Epoch: 26 January)

Event Time Altitude Azimuth Distance (km) Brightness Sun altitude
Rises 02:08:11 0° 283° (WNW) 2,966 - -60.4°
Reaches altitude 10° 02:11:02 10° 266° (W) 2,058 - -60.1°
Maximum altitude 02:14:25 20° 221° (SW) 1,527 - -59.7°
Drops below altitude 10° 02:17:48 10° 175° (S) 2,064 - -59.3°
Sets 02:20:41 0° 158° (SSE) 2,976 - -59.0°
